www.pogodaiklimat.ru

Погода и климат >> Архив погоды >> Антарктида >> Casey


ПОГОДА в Casey

  • Прогноз погоды в Casey
  • Монитор погоды в Casey
  • Климат города

АРХИВ ПОГОДЫ в Casey

Время (UTC), дата Ветер
(напр.,м/с)
 
Видим.   Явления Облачность Т
(С)
Тd
(С)
f
(%)
Тe
(С)
Тes
(С)
Комфортность P
(гПа)
Po
(гПа)
Тmin
(С)
Tmax
(С)
R
(мм)
R24
(мм)
S
(см)
03 14.11 С 9 1500 м слабый снег 10/10 300 м
[St]
-5.7 -8.6 80 -15 -15 967.6 962.4 -7.3
06 14.11 С 7 1500 м слабый снег 10/10 300 м
[Sc]
-5.5 -8.4 80 -14 -14 967.8 962.6
09 14.11 С 6 500 м снег 10/10 300 м
[St]
-6.2 -8.0 87 -14 -14 968.3 963.1
12 14.11 СЗ 8 10 км слабый снег 9/9 600 м
[Sc]
-7.3 -9.8 82 -16 -16 969.3 964.1
15 14.11 С 6 н/о 9/9 300 м
[]
-8.1 -11.6 76 -16 -16 971.1 965.9 -5.2
18 14.11 СВ 9 н/о 9/9 300 м
[]
-9.1 -11.3 84 -19 -19 972.4 967.2
21 14.11 СВ 9 20 км слабый снег 9/6 300 м
[Sc As trans]
-10.5 -13.0 82 -21 -21 974.1 968.9
00 15.11 СВ 6 30 км слабый снег 9/9 300 м
[Sc]
-8.8 -12.2 76 -17 -17 975.9 970.7
03 15.11 СВ 4 30 км {снег} 5/3 600 м
[Sc Ac trans]
-7.0 -12.3 66 -14 -10 976.9 971.7 -11.1
06 15.11 СВ 3 30 км 5/4 300 м
[Sc Ac trans]
-6.0 -12.1 62 -11 -7 978.0 972.7
09 15.11 СВ 4 30 км 3/1 600 м
[Sc Cs]
-6.4 -11.5 67 -12 -9 978.8 973.5
12 15.11 В 6 н/о н/о -10.2 -14.6 70 -19 -19 979.6 974.3
15 15.11 В 7 н/о н/о -13.1 -17.7 68 -23 -23 980.2 974.9 -5.5
18 15.11 В 7 н/о 10/10 1500 м
[]
-10.7 -16.3 63 -20 -20 980.7 975.4
21 15.11 В 6 н/о 9/0 2000 м
[]
-8.8 -14.9 61 -17 -17 981.5 976.2
00 16.11 Ю 2 30 км 9/9 1500 м
[Sc]
-7.0 -14.1 57 -11 -11 982.6 977.3
03 16.11 ЮВ 3 30 км 8/6 1500 м
[Sc Ac cast]
-4.3 -14.7 44 -9 -7 983.3 978.0 -13.4
06 16.11 Ю 4 30 км 8/6 1500 м
[Sc Ac cast]
-4.8 -14.1 48 -10 -8 984.2 978.9
09 16.11 СЗ 4 30 км 6/6 2000 м
[Sc]
-4.2 -13.5 48 -9 -8 985.4 980.1
12 16.11 З 4 н/о 10/10 1000 м
[]
-5.2 -12.1 58 -11 -11 986.6 981.3
15 16.11 СВ 5 н/о 10/10 600 м
[]
-7.3 -9.1 87 -15 -15 987.2 981.9 -4.2
18 16.11 СВ 5 н/о 10/10 300 м
[]
-6.8 -10.3 76 -14 -14 987.7 982.4
21 16.11 СВ 6 15 км осадки на расстоянии 9/9 <50 м
[Sc]
-6.8 -11.5 69 -15 -15 988.5 983.2
00 17.11 СВ 7 15 км осадки на расстоянии 10/10 300 м
[Sc]
-6.7 -11.8 67 -15 -15 988.8 983.5
03 17.11 СВ 10 15 км осадки на расстоянии 10/10 1000 м
[Sc]
-6.0 -11.7 64 -15 -15 988.8 983.5 -8.0
06 17.11 В 8 8000 м слабый снег 10/10 1000 м
[Sc]
-6.1 -12.0 63 -15 -15 988.9 983.6
09 17.11 В 8 10 км осадки на расстоянии {снег} 10/10 600 м
[Sc]
-5.8 -11.9 62 -14 -14 988.4 983.1
21 17.11 ЮВ 5 н/о н/о -9.2 -18.7 46 -17 -17 978.4 973.1
00 18.11 Ю 10 30 км 9/1 300 м
[St Ac trans Cs]
-8.8 -15.3 59 -19 -19 972.9 967.7
03 18.11 Ю 10 30 км 9/0 2000 м
[Ac trans Cs]
-6.6 -14.1 55 -16 -16 965.5 960.3 -12.4
06 18.11 Ю 14 15 км позёмок {метель} 10/10 300 м
[St]
-6.3 -9.5 78 -17 -17 958.0 952.9
09 18.11 Ю 11 20 км позёмок {метель} 10/0 2000 м
[As op]
-4.7 -7.9 78 -14 -14 953.0 947.9
12 18.11 В 10 н/о 10/0 2000 м
[]
-2.0 -7.3 67 -10 -10 951.8 946.7
15 18.11 ЮВ 10 н/о н/о -4.8 -10.9 62 -14 -14 952.7 947.6 -1.5
18 18.11 ЮВ 3 н/о н/о -7.1 -11.4 71 -12 -12 953.0 947.9
21 18.11 СВ 7 30 км 4/0 2000 м
[Ac trans]
-5.7 -11.2 65 -14 -14 956.2 951.1
00 19.11 СВ 15 6000 м позёмок 9/8 300 м
[Sc Ac trans]
-4.6 -8.2 76 -16 -16 961.5 956.3
03 19.11 СВ 17 5000 м позёмок {метель} 4/3 100 м
[Sc As trans]
-4.3 -7.2 80 -16 -16 967.6 962.4 -11.4
06 19.11 СВ 24 900 м метель 8/3 600 м
[Sc Ac trans]
-4.6 -7.5 80 -18 -18 972.5 967.3
09 19.11 СВ 12 6000 м осадки на расстоянии 9/1 600 м
[Sc Ac trans]
-4.7 -7.1 83 -15 -15 979.1 973.8
12 19.11 СВ 15 н/о 10/10 600 м
[]
-4.6 -7.5 80 -16 -16 983.2 977.9
15 19.11 СВ 12 н/о 10/10 600 м
[]
-4.5 -7.4 80 -15 -15 986.5 981.2 -1.8
18 19.11 СВ 8 н/о 10/10 600 м
[]
-4.6 -7.7 79 -13 -13 989.2 983.9
21 19.11 В 8 20 км осадки на расстоянии 9/9 300 м
[Sc]
-4.9 -9.2 72 -13 -13 991.2 985.9
00 20.11 В 8 20 км 8/4 300 м
[Sc Ac trans]
-3.2 -9.4 62 -11 -11 992.2 986.9
03 20.11 В 10 30 км 9/9 1000 м
[Cu Sc]
-1.9 -8.4 61 -10 -10 992.8 987.5 -5.5
06 20.11 СВ 9 30 км 9/9 1500 м
[Sc]
-1.1 -9.2 54 -9 -8 991.4 986.1
09 20.11 В 15 20 км 9/9 600 м
[Sc Cs]
-1.9 -7.8 64 -12 -12 988.8 983.5
12 20.11 В 17 н/о 10/0 2000 м
[]
-3.3 -8.7 66 -14 -14 985.9 980.6
15 20.11 В 19 н/о 9/0
[]
-3.6 -7.9 72 -15 -15 983.3 978.0 -0.7
18 20.11 В 14 н/о н/о -3.1 -8.5 66 -13 -13 982.2 976.9
21 20.11 Ю 6 25 км 9/9 600 м
[Sc As trans]
-2.6 -11.1 52 -9 -9 983.0 977.7

 

Местоположение метеостанции Casey (Антарктида): широта -66.28 долгота 110.51 высота над уровнем моря 41 м.

В архиве по умолчанию представлена погода в Casey за последнюю неделю. Архивные данные за месяц целиком и за предыдущие месяцы, начиная с января 2011 года, Вы можете получить, выбрав интересующий диапазон дат из раскрывающегося списка и нажав кнопку "Ввод!".


*Определитесь, кто Вы:
робот инопланетянин человек

Внимание! Время в таблицах - всемирное. Для получения местного времени необходимо прибавить поправку, которая в Casey равна 0 ч.

Смотрите также архив погоды в соседних городах и на ближайших метеорологических станциях:

Погода в Casey Skiway South (Антарктида) (12 км)
Погода в Casey (Peterson air) (Антарктида) (46 км)
Погода в Wilkins Runway East (Антарктида) (63 км)
Погода в Casey Snyder Rocks (Антарктида) (126 км)
Погода в Oazic Bangera (Антарктида) (436 км)
Погода в Mirnyj (Антарктида) (776 км)
Погода в Dome C II (Антарктида) (1085 км)
Погода в Vostok (Антарктида) (1361 км)

Пояснения к столбцам:

Ветер - указаны скорость ветра в м/с - средняя за 10 мин, порывы в срок и между сроками (в фигурных скобках) и направление, откуда дует ветер: С - северный, СВ - северо-восточный, В - восточный, ЮВ - юго-восточный, Ю - южный, ЮЗ - юго-западный, З - западный, СЗ - северо-западный.
Видимость - горизонтальная дальность видимости в метрах или километрах. При видимости от 1 до 10 км при отсутствии осадков обычно наблюдается дымка, при ухудшении видимости до 1 км и менее - туман. В сухую погоду видимость может ухудшаться дымом, пылью или мглою.
Явления - указаны атмосферные явления, наблюдавшиеся в срок или в последний час перед сроком; фигурными скобками обозначены явления, наблюдавшиеся между сроками (за 1-3 часа до срока); квадратными скобками обозначены град или гололедные отложения с указанием их диаметра в мм.
Облачность - указаны через наклонную черту общая и нижняя облачность в баллах и высота нижней границы облаков в метрах; квадратными скобками обозначены формы облаков: Ci - перистые, Cs - перисто-слоистые, Cc - перисто-кучевые, Ac - высококучевые, As - высокослоистые, Sc - слоисто-кучевые, Ns - слоисто-дождевые, Cu - кучевые, Cb - кучево-дождевые. Подробнее классификацию облаков см. в Атласе облаков (PDF).
T - Температура воздуха - температура, измеренная на высоте 2 м над землей.
Td - Температура точки росы - температура, при понижении до которой содержащийся в воздухе водяной пар достигнет насыщения.
f - Относительная влажность воздуха - влажноcть воздуха, измеренная на высоте 2 м над землей.
Te - Эффективная температура - температура, которую ощущает одетый по сезону человек в тени. Характеристика душности погоды. При расчете учитывается влияние влажности воздуха и скорости ветра на теплоощущения человека.
Tes - Эффективная температура на солнце - температура, которую ощущает человек, с поправкой на солнечный нагрев. Характеристика знойности погоды. Зависит от высоты солнца над горизонтом, облачности и скорости ветра. Ночью, в пасмурную погоду, а также при ветре 12 м/с и более поправка равна нулю.
P - Атмосферное давление - приведенное к уровню моря атмосферное давление.
Po - Атмосферное давление - измеренное на уровне метеостанции атмосферное давление.
Tmin - Минимальная температура - минимум температуры воздуха на высоте 2 м над землей.
Tmax - Максимальная температура - максимум температуры воздуха на высоте 2 м над землей.
R - Количество осадков - Количество выпавших осадков за период времени, мм. При наведении курсора мыши на число - период времени, за который выпало указанное количество осадков.
R24 - Количество осадков - Количество выпавших осадков за 24 часа, мм.
S - Снежный покров - Высота снежного покрова, см. При наведении курсора мыши на число - состояние снежного покрова и степень покрытия местности в баллах.